Tracking 30101 objects as of 13-Dec-2024
HD Live streaming from Space Station
objects crossing your sky now

COSMOS 1579

Track COSMOS 1579 now!
10-day predictions
COSMOS 1579 is classified as:


NORAD ID: 15085
Int'l Code: 1984-069A
Perigee: 905.9 km
Apogee: 992.5 km
Inclination: 65.1 °
Period: 103.9 minutes
Semi major axis: 7320 km
RCS: 2.625 m2 (large)
Launch date: June 29, 1984
Source: Commonwealth of Independent States (former USSR) (CIS)
Launch site: TYURATAM MISSILE AND SPACE COMPLEX (TTMTR)
Your satellite tracking list
Your tracking list is empty




NASA's NSSDC Master Catalog

Two Line Element Set (TLE):
1 15085U 84069A   24348.53760610 -.00000032  00000-0  48210-4 0  9990
2 15085  65.0514  72.5573 0059117 232.7937 126.7721 13.86172660 49703
Source of the keplerian elements: AFSPC